DW1253 Weather Reports


time (UTC)temp
C
wind
direction
speed
KPH
gust
KPH
rain 1hr
cm
rain 24hr
cm
rain mn
cm
humidity
%
barometer
mb
20260507020846 5 284 0.0 0.0 0.00 1.93 1.55 89 1010.7
20260507020336 5 284 0.0 0.0 0.00 1.93 1.55 89 1010.8
20260507015853 5 284 0.0 0.0 0.00 2.11 1.55 89 1010.8
20260507015335 5 284 0.0 0.0 0.00 2.11 1.55 89 1010.8
20260507014837 5 284 0.0 0.0 0.00 2.11 1.55 89 1011.0
20260507014335 5 284 0.0 0.0 0.00 2.11 1.55 89 1010.9
20260507013835 5 284 0.0 0.0 0.00 2.11 1.55 89 1010.9
20260507013355 5 284 0.0 0.0 0.00 2.11 1.55 89 1010.9
20260507012847 5 284 0.0 0.0 0.00 2.11 1.55 89 1011.0
20260507012343 5 284 0.0 0.0 0.00 2.11 1.55 94 1011.1
20260507011842 5 284 0.0 0.0 0.00 2.11 1.55 89 1010.9
20260507011411 5 284 0.0 0.0 0.00 2.11 1.55 89 1010.8
20260507010847 5 284 0.0 0.0 0.00 2.11 1.55 89 1010.8
20260507010408 5 284 0.0 0.0 0.00 2.11 1.55 89 1010.8
20260507005837 5 284 0.0 0.0 0.00 2.31 1.55 89 1010.7
20260507005353 5 284 0.0 0.0 0.00 2.31 1.55 89 1010.5
20260507004910 5 284 0.0 1.6 0.00 2.31 1.55 89 1010.4
20260507004346 5 284 0.0 1.6 0.00 2.31 1.55 89 1010.5
20260507003845 5 284 0.0 0.0 0.00 2.31 1.55 89 1010.6
20260507003346 5 284 0.0 0.0 0.00 2.31 1.55 89 1010.7
20260507002848 5 284 0.0 0.0 0.00 2.31 1.55 89 1010.6
20260507002343 5 284 0.0 0.0 0.00 2.31 1.55 89 1010.6
20260507001844 5 284 0.0 0.0 0.00 2.31 1.55 89 1010.5
20260507001416 5 284 0.0 0.0 0.00 2.31 1.55 89 1010.1
20260507000835 5 284 0.0 0.0 0.00 2.31 1.55 89 1010.1
20260507000350 5 284 0.0 0.0 0.00 2.31 1.55 89 1010.1
20260506235911 5 284 0.0 0.0 0.00 2.57 1.55 89 1010.1
20260506235350 5 284 0.0 0.0 0.00 2.57 1.55 89 1010.0
20260506234845 5 284 0.0 0.0 0.00 2.57 1.55 89 1010.1
20260506234342 5 284 0.0 0.0 0.00 2.57 1.55 89 1010.0
20260506233849 5 302 0.0 0.0 0.00 2.57 1.55 90 1010.0
20260506233347 5 302 0.0 0.0 0.00 2.57 1.55 90 1009.9
20260506232844 5 178 0.0 0.0 0.00 2.57 1.55 90 1010.0
20260506232344 6 269 0.0 0.0 0.00 2.57 1.55 90 1010.1
20260506231849 6 269 0.0 1.6 0.00 2.57 1.55 90 1010.1
20260506231410 6 265 0.0 4.8 0.00 2.57 1.55 90 1009.8
20260506230839 6 265 1.6 4.8 0.00 2.57 1.55 90 1009.9
20260506230343 6 184 1.6 4.8 0.00 2.57 1.55 90 1010.0
20260506225856 6 315 1.6 4.8 0.00 2.97 1.55 90 1009.9
20260506225348 6 262 1.6 6.4 0.00 2.97 1.55 90 1009.8
20260506224906 6 343 1.6 6.4 0.00 2.97 1.55 90 1009.9
20260506224345 6 278 1.6 4.8 0.00 2.97 1.55 90 1009.9
20260506223835 6 95 0.0 4.8 0.00 2.97 1.55 90 1009.8
20260506223350 6 355 0.0 3.2 0.00 2.97 1.55 89 1009.5
20260506222853 6 315 1.6 4.8 0.00 2.97 1.55 89 1009.5
20260506222348 6 225 0.0 4.8 0.00 2.97 1.55 89 1009.4
20260506221913 6 262 0.0 9.7 0.00 2.97 1.55 89 1009.4
20260506221352 7 261 3.2 9.7 0.00 2.97 1.55 88 1009.3
20260506220914 7 238 1.6 9.7 0.00 2.97 1.55 88 1009.0
20260506220417 7 355 3.2 8.0 0.00 2.97 1.55 88 1009.0
20260506215849 7 331 1.6 4.8 0.00 3.33 1.55 87 1008.9
20260506215336 7 328 0.0 4.8 0.00 3.33 1.55 87 1008.8
20260506214842 7 339 0.0 12.9 0.00 3.33 1.55 86 1008.8
20260506214356 7 238 6.4 12.9 0.00 3.33 1.55 85 1008.7
20260506213849 8 279 0.0 16.1 0.00 3.33 1.55 84 1008.7
20260506213346 8 224 1.6 16.1 0.00 3.33 1.55 83 1008.6
20260506212853 8 299 1.6 12.9 0.00 3.33 1.55 82 1008.7
20260506212335 8 342 3.2 12.9 0.00 3.33 1.55 81 1008.6
20260506211853 9 217 4.8 9.7 0.00 3.33 1.55 81 1008.5
20260506211349 10 182 1.6 12.9 0.00 3.33 1.55 81 1008.3
20260506210845 10 227 6.4 17.7 0.00 3.33 1.55 80 1008.3
20260506210341 10 234 6.4 12.9 0.00 3.33 1.55 79 1008.0
20260506205855 10 198 1.6 6.4 0.00 3.35 1.55 79 1008.0
20260506205343 10 172 1.6 8.0 0.00 3.35 1.55 77 1007.9
20260506204841 10 209 3.2 8.0 0.00 3.35 1.55 82 1007.9
20260506204358 9 279 4.8 8.0 0.00 3.35 1.55 83 1008.1
20260506203835 9 263 3.2 11.3 0.00 3.35 1.55 82 1008.0
20260506203354 9 236 3.2 11.3 0.00 3.35 1.55 82 1008.1
20260506202854 9 209 3.2 12.9 0.00 3.35 1.55 82 1008.2
20260506202401 10 223 4.8 12.9 0.00 3.35 1.55 82 1008.1
20260506201837 10 189 4.8 11.3 0.00 3.35 1.55 83 1008.0
20260506201336 10 277 3.2 8.0 0.00 3.35 1.55 82 1008.0
20260506200854 10 213 4.8 8.0 0.00 3.35 1.55 80 1008.1
20260506200339 10 15 3.2 11.3 0.00 3.35 1.55 81 1008.0
20260506195848 10 248 1.6 11.3 0.00 3.35 1.55 80 1008.1
20260506195406 10 211 1.6 8.0 0.00 3.35 1.55 78 1008.0
20260506194836 10 246 1.6 6.4 0.00 3.35 1.55 78 1008.0
20260506194353 10 245 1.6 6.4 0.00 3.35 1.55 78 1007.8
20260506193909 10 96 1.6 12.9 0.00 3.35 1.55 84 1007.9
20260506193349 10 349 4.8 12.9 0.00 3.35 1.55 86 1008.0
20260506192849 10 302 0.0 3.2 0.00 3.35 1.55 87 1007.9
20260506192349 9 292 0.0 4.8 0.00 3.35 1.55 85 1008.0
20260506191839 9 256 1.6 4.8 0.00 3.35 1.55 86 1008.0
20260506191402 9 254 0.0 6.4 0.00 3.35 1.55 84 1008.0
20260506190845 9 229 0.0 6.4 0.00 3.35 1.55 85 1008.1
20260506190344 9 344 1.6 6.4 0.00 3.35 1.55 84 1008.1
20260506185851 9 28 0.0 6.4 0.00 3.35 1.55 86 1008.1
20260506185349 9 281 0.0 6.4 0.00 3.35 1.55 86 1008.0
20260506184841 9 340 1.6 4.8 0.00 3.35 1.55 86 1008.1
20260506184353 9 194 1.6 6.4 0.00 3.35 1.55 88 1007.9
20260506183835 9 218 0.0 8.0 0.00 3.35 1.55 86 1007.8
20260506183405 9 217 3.2 8.0 0.00 3.35 1.55 87 1007.8
20260506182844 8 199 4.8 8.0 0.00 3.35 1.55 89 1007.9
20260506182335 8 224 3.2 6.4 0.00 3.35 1.55 90 1007.9
20260506181849 8 200 0.0 4.8 0.00 3.35 1.55 94 1008.0
20260506181342 8 212 1.6 4.8 0.00 3.35 1.55 94 1008.1
20260506180837 8 71 0.0 4.8 0.00 3.35 1.55 94 1008.1
20260506180330 8 321 0.0 3.2 0.00 3.35 1.55 94 1008.1
20260506175845 8 312 1.6 3.2 0.00 3.35 1.55 94 1008.1
20260506175345 7 290 1.6 3.2 0.00 3.35 1.55 94 1008.0
20260506174849 7 301 1.6 6.4 0.00 3.35 1.55 94 1008.0
20260506174348 7 340 1.6 6.4 0.00 3.35 1.55 95 1008.0
20260506173841 7 281 1.6 4.8 0.00 3.35 1.55 95 1008.1
20260506173337 7 242 1.6 4.8 0.00 3.35 1.55 95 1008.1
20260506172834 7 136 1.6 3.2 0.00 3.35 1.55 95 1008.1
20260506172351 7 154 0.0 6.4 0.00 3.35 1.55 95 1008.0
20260506171837 7 155 0.0 6.4 0.00 3.35 1.55 95 1007.9
20260506171347 7 317 1.6 6.4 0.00 3.35 1.55 95 1007.9
20260506170847 7 316 0.0 8.0 0.00 3.35 1.55 95 1007.9
20260506170411 7 316 3.2 8.0 0.00 3.35 1.55 95 1008.2
20260506165903 7 302 3.2 8.0 0.00 3.35 1.55 95 1007.9
20260506165348 7 304 1.6 8.0 0.00 3.35 1.55 95 1007.9
20260506164844 7 351 1.6 6.4 0.00 3.35 1.55 95 1007.8
20260506164341 7 302 0.0 4.8 0.00 3.35 1.55 95 1007.7
20260506163843 7 301 1.6 4.8 0.00 3.35 1.55 95 1007.7
20260506163344 7 192 0.0 6.4 0.00 3.35 1.55 95 1007.8
20260506162902 7 251 1.6 11.3 0.00 3.35 1.55 95 1007.6
20260506162356 7 344 4.8 11.3 0.00 3.35 1.55 95 1007.5
20260506161838 7 136 3.2 6.4 0.00 3.35 1.55 95 1007.3
20260506161420 7 309 1.6 8.0 0.00 3.35 1.55 95 1007.4
20260506160852 7 55 3.2 8.0 0.00 3.35 1.55 95 1007.4
20260506160353 7 5 1.6 6.4 0.00 3.35 1.55 95 1007.4
20260506155839 7 360 3.2 8.0 0.00 3.35 1.55 95 1007.5
20260506155404 7 360 4.8 8.0 0.00 3.35 1.55 95 1007.4
20260506154839 7 23 0.0 6.4 0.00 3.35 1.55 95 1007.4
20260506154336 7 27 0.0 6.4 0.00 3.35 1.55 95 1007.4
20260506153838 7 23 1.6 6.4 0.00 3.35 1.55 95 1007.4
20260506153351 7 5 3.2 6.4 0.00 3.35 1.55 95 1007.4
20260506152841 7 16 0.0 4.8 0.00 3.35 1.55 95 1007.3
20260506152410 7 22 1.6 9.7 0.00 3.35 1.55 96 1007.3
20260506151854 7 349 1.6 9.7 0.00 3.35 1.55 96 1007.3
20260506151351 7 34 1.6 6.4 0.00 3.35 1.55 96 1007.3
20260506150855 7 32 3.2 6.4 0.00 3.35 1.55 96 1007.2
20260506150412 7 9 3.2 6.4 0.00 3.35 1.55 96 1007.3
20260506145855 7 40 4.8 6.4 0.00 3.35 1.55 96 1007.3
20260506145412 7 11 3.2 6.4 0.00 3.35 1.55 96 1007.2
20260506144842 7 25 3.2 6.4 0.03 3.35 1.55 96 1007.0
20260506144354 7 355 1.6 6.4 0.03 3.35 1.55 96 1006.9
20260506143849 7 80 3.2 6.4 0.03 3.35 1.55 96 1006.8
20260506143344 7 80 3.2 6.4 0.03 3.35 1.55 96 1006.8
20260506142838 7 76 4.8 6.4 0.03 3.35 1.55 96 1006.7
20260506142336 7 90 1.6 4.8 0.03 3.35 1.55 96 1006.6
20260506141852 6 91 1.6 3.2 0.03 3.35 1.55 96 1006.9
20260506141348 6 91 1.6 4.8 0.03 3.35 1.55 96 1006.8
20260506140844 6 91 1.6 6.4 0.03 3.35 1.55 96 1006.8
20260506140401 6 91 1.6 9.7 0.03 3.35 1.55 96 1006.7
20260506135836 6 104 3.2 11.3 0.03 3.35 1.55 96 1006.7
20260506135336 6 84 4.8 11.3 0.03 3.35 1.55 96 1006.5
20260506134837 7 86 4.8 9.7 0.00 3.33 1.52 96 1006.4
20260506134354 7 138 3.2 6.4 0.03 3.33 1.52 96 1006.5
20260506133852 6 63 3.2 8.0 0.03 3.33 1.52 96 1006.5
20260506133348 6 89 3.2 11.3 0.03 3.33 1.52 96 1006.5
20260506132848 6 89 6.4 11.3 0.03 3.33 1.52 96 1006.6
20260506132346 6 74 1.6 4.8 0.05 3.33 1.52 96 1006.5
20260506131841 6 74 1.6 4.8 0.05 3.33 1.52 96 1006.5
20260506131342 6 74 3.2 4.8 0.05 3.33 1.52 96 1006.5
20260506130857 6 74 0.0 6.4 0.05 3.33 1.52 96 1006.5
20260506130333 6 67 3.2 6.4 0.05 3.33 1.52 96 1006.4
20260506125906 6 35 3.2 6.4 0.05 3.33 1.52 96 1006.3
20260506125347 6 85 1.6 9.7 0.05 3.33 1.52 96 1006.3
20260506124851 6 86 4.8 9.7 0.08 3.33 1.52 96 1006.1
20260506124343 6 47 1.6 4.8 0.05 3.30 1.50 96 1006.2
20260506123836 6 76 3.2 4.8 0.05 3.30 1.50 96 1006.0
20260506123334 6 51 1.6 6.4 0.05 3.30 1.50 96 1006.3
20260506122847 6 51 3.2 6.4 0.08 3.30 1.50 96 1006.3
20260506122409 6 82 3.2 8.0 0.05 3.28 1.47 96 1006.3
20260506121844 6 18 4.8 8.0 0.08 3.28 1.47 96 1006.1
20260506121339 6 31 3.2 6.4 0.10 3.28 1.47 96 1006.1
20260506120835 6 58 3.2 8.0 0.10 3.28 1.47 96 1006.0
20260506120335 6 9 1.6 8.0 0.13 3.28 1.47 96 1006.0
20260506115851 6 54 3.2 9.7 0.13 3.28 1.47 96 1005.9
20260506115415 6 69 3.2 9.7 0.13 3.28 1.47 96 1005.8
20260506114851 6 98 3.2 9.7 0.10 3.25 1.45 96 1006.0
20260506114343 6 86 6.4 16.1 0.13 3.25 1.45 96 1005.9
20260506113838 6 101 4.8 24.1 0.13 3.25 1.45 96 1005.8
20260506113350 6 59 8.0 24.1 0.13 3.25 1.45 96 1006.0
20260506112851 6 76 11.3 22.5 0.10 3.23 1.42 96 1006.1
20260506112343 6 355 6.4 20.9 0.10 3.23 1.42 96 1006.2
20260506111858 6 348 9.7 20.9 0.10 3.20 1.40 96 1006.2
20260506111411 6 28 11.3 17.7 0.08 3.17 1.37 96 1006.3
20260506110852 6 54 3.2 19.3 0.10 3.17 1.37 96 1006.2
20260506110341 6 5 6.4 20.9 0.08 3.15 1.35 96 1006.1
20260506105834 6 302 4.8 24.1 0.10 3.15 1.35 96 1005.7
20260506105413 6 16 4.8 24.1 0.10 3.15 1.35 96 1005.5
20260506104843 6 85 4.8 16.1 0.10 3.12 1.32 96 1005.5
20260506104338 6 76 6.4 17.7 0.13 3.12 1.32 96 1005.4
20260506103859 6 72 6.4 17.7 0.13 3.12 1.32 96 1005.3
20260506103352 7 43 6.4 17.7 0.15 3.12 1.32 96 1005.4
20260506102852 7 63 6.4 12.9 0.15 3.12 1.32 96 1005.5
20260506102344 7 49 4.8 17.7 0.18 3.12 1.32 96 1005.4
20260506101904 7 77 8.0 19.3 0.15 3.10 1.30 96 1005.3
20260506101336 7 101 8.0 16.1 0.18 3.10 1.30 96 1005.2
20260506100900 7 71 4.8 16.1 0.15 3.07 1.27 96 1005.6
20260506100354 7 59 6.4 12.9 0.18 3.07 1.27 96 1005.6
20260506095850 7 51 8.0 16.1 0.18 3.05 1.24 96 1005.8
20260506095346 7 95 8.0 16.1 0.15 3.02 1.22 96 1005.8
20260506094837 7 51 8.0 14.5 0.18 3.02 1.22 96 1006.0
20260506094338 7 76 6.4 16.1 0.18 3.00 1.19 96 1006.0
20260506093839 7 61 8.0 17.7 0.18 3.00 1.19 96 1005.9
20260506093339 6 33 6.4 19.3 0.15 2.97 1.17 96 1005.9
20260506092856 7 38 9.7 19.3 0.18 2.97 1.17 96 1005.9
20260506092417 7 64 8.0 17.7 0.18 2.95 1.14 96 1005.9
20260506091408 7 70 8.0 16.1 0.18 2.92 1.12 96 1005.7
20260506090850 7 82 8.0 19.3 0.20 2.92 1.12 96 1005.8
20260506090349 7 355 9.7 17.7 0.18 2.90 1.09 96 1005.8
20260506085841 7 117 4.8 16.1 0.15 2.87 1.07 96 1005.8
20260506085339 7 93 6.4 17.7 0.15 2.84 1.04 96 1005.7
20260506084839 7 65 8.0 17.7 0.15 2.84 1.04 96 1005.8
20260506084352 7 63 4.8 12.9 0.15 2.82 1.02 96 1005.7
20260506083852 7 86 4.8 14.5 0.15 2.82 1.02 96 1005.7
20260506083336 7 22 6.4 17.7 0.15 2.82 1.02 100 1005.6
20260506082842 7 30 9.7 17.7 0.10 2.77 0.97 96 1005.5
20260506082349 7 100 4.8 12.9 0.10 2.77 0.97 96 1005.8
20260506081849 7 58 6.4 19.3 0.08 2.74 0.94 96 1005.8
20260506081406 7 78 11.3 19.3 0.10 2.74 0.94 96 1005.8
20260506080849 7 67 4.8 14.5 0.08 2.72 0.91 96 1005.6
20260506080342 7 33 4.8 14.5 0.10 2.72 0.91 96 1005.7
20260506073340 7 23 8.0 14.5 0.13 2.67 0.86 96 1005.6
20260506072856 7 27 3.2 12.9 0.13 2.67 0.86 96 1005.6
20260506072338 7 90 3.2 9.7 0.18 2.67 0.86 96 1005.7
20260506071855 7 43 3.2 9.7 0.20 2.67 0.86 96 1005.8
20260506071335 7 12 4.8 12.9 0.23 2.64 0.84 96 1006.0
20260506070834 7 19 6.4 12.9 0.25 2.62 0.81 96 1006.0
20260506070353 7 44 3.2 11.3 0.36 2.62 0.81 96 1006.3
20260506062358 8 303 1.6 9.7 0.41 2.49 0.69 96 1006.8
20260506061841 8 355 3.2 12.9 0.41 2.46 0.66 96 1006.2
20260506060852 8 33 3.2 8.0 0.36 2.36 0.56 96 1006.0
20260506060343 8 11 3.2 8.0 0.28 2.26 0.46 96 1006.4
20260506051414 8 11 3.2 6.4 0.23 2.03 0.23 96 1007.0
20260506050857 8 242 1.6 3.2 0.20 2.01 0.20 96 1007.1
20260506050330 8 242 0.0 3.2 0.18 1.98 0.18 96 1007.1
20260506044843 8 242 0.0 3.2 0.13 1.91 0.10 96 1006.8
20260506044344 8 242 0.0 3.2 0.13 1.88 0.08 96 1006.8
20260506043847 8 242 1.6 3.2 0.10 1.85 0.05 96 1006.8
20260506043343 8 242 0.0 3.2 0.13 1.85 0.05 96 1006.9
20260506042846 8 242 0.0 4.8 0.15 1.85 0.05 96 1007.1
20260506042407 8 242 3.2 6.4 0.13 1.83 0.03 96 1007.3
20260506041847 8 242 3.2 6.4 0.13 1.83 0.03 96 1007.3
20260506041348 8 93 0.0 3.2 0.13 1.80 0.00 96 1006.9
20260506040851 8 93 0.0 3.2 0.13 1.80 0.00 96 1007.0
20260506040346 8 93 1.6 3.2 0.15 1.80 0.00 96 1006.8
20260506035852 8 93 0.0 3.2 0.15 1.80 1.80 96 1006.9
20260506035346 8 93 0.0 6.4 0.15 1.78 1.78 96 1006.8
20260506034840 8 93 4.8 6.4 0.15 1.78 1.78 96 1006.7
20260506034338 8 70 1.6 4.8 0.15 1.75 1.75 96 1006.9
20260506033837 8 69 3.2 4.8 0.18 1.75 1.75 96 1006.8
20260506033356 8 67 0.0 3.2 0.15 1.73 1.73 96 1006.9
20260506032837 8 67 0.0 3.2 0.15 1.70 1.70 96 1006.9
20260506032356 8 67 1.6 3.2 0.15 1.70 1.70 96 1006.9
20260506031850 8 67 1.6 3.2 0.18 1.70 1.70 96 1006.9
20260506031352 8 67 0.0 1.6 0.18 1.68 1.68 96 1007.1
20260506030834 8 67 0.0 1.6 0.20 1.65 1.68 96 1007.1
20260506030348 8 67 0.0 3.2 0.20 1.65 1.65 96 1007.2
20260506025852 8 67 1.6 3.2 0.23 1.65 1.65 96 1007.3
20260506025415 8 63 1.6 3.2 0.23 1.63 1.63 96 1007.3
20260506024835 8 63 0.0 3.2 0.20 1.60 1.60 96 1007.4
20260506024407 8 63 1.6 3.2 0.23 1.60 1.60 96 1007.7
20260506023838 8 63 0.0 4.8 0.20 1.57 1.57 96 1007.6
20260506023410 8 63 0.0 4.8 0.20 1.57 1.57 96 1007.6
20260506022844 8 63 0.0 4.8 0.20 1.55 1.55 95 1008.1
20260506022402 8 63 1.6 4.8 0.20 1.55 1.55 95 1008.1
20260506021846 8 63 1.6 3.2 0.20 1.52 1.52 95 1007.4
20260506021338 8 63 0.0 1.6 0.18 1.47 1.47 95 1007.7